Location: Brachstadt
(48.6975°N, 10.6755°E)
Time: 05:53:35
(UTC+00:00)

Lacrosse 5 rocket - Pass Details

Date: 18 September 2020
Orbit: 460 x 636 km, 57.0° (Epoch: 27 October)

Event Time Altitude Azimuth Distance (km) Brightness Sun altitude
Rises 19:47:07 0° 285° (WNW) 2,792 6.2 -23.3°
Reaches altitude 10° 19:49:35 10° 298° (WNW) 1,924 5.2 -23.7°
Maximum altitude 19:53:24 28° 358° (N) 1,154 3.2 -24.2°
Enters shadow 19:55:07 22° 34° (NNE) 1,360 3.3 -24.4°
